Weather History for Emporia, KS

Change the Weather History Date:

Tuesday, February 5, 2013

  Actual Average Record
Temperature  
Mean Temperature 42 °F 33 °F  
Max Temperature 62 °F 43 °F 66 °F (2009)
Min Temperature 22 °F 22 °F 0 °F (2014)
Degree Days  
Heating Degree Days 23 32  
Month to date heating degree days 146 163  
Since 1 July heating degree days 2863 3151  
Cooling Degree Days 0 0  
Month to date cooling degree days 0 0  
Year to date cooling degree days 0 0  
Moisture  
Dew Point 26 °F    
Average Humidity 61    
Maximum Humidity 96    
Minimum Humidity 25    
Precipitation  
Precipitation 0.00 in 0.05 in 0.70 in (2008)
Month to date precipitation T 0.21  
Year to date precipitation 0.49 0.84  
Sea Level Pressure  
Sea Level Pressure 30.02 in    
Wind  
Wind Speed 8 mph (NE)    
Max Wind Speed 18 mph    
Max Gust Speed 22 mph    
Visibility 8 miles    
Events      
T = Trace of Precipitation, MM = Missing Value Source: NWS Daily Summary

Daily Weather History Graph

Daily Weather History Graph

Search for Another Location

Airport:

Trip Planner

Search our weather history database for the weather conditions in past years. The results will help you decide how hot, cold, wet, or windy it might be!

Date:

Astronomy

Feb. 05, 2013 Rise Set
Actual Time 7:25 AM CST 5:52 PM CST
Civil Twilight 6:58 AM CST 6:19 PM CST
Nautical Twilight 6:26 AM CST 6:51 PM CST
Astronomical Twilight 5:55 AM CST 7:22 PM CST
Moon 3:07 AM CST (2/5) 1:12 PM CST (2/5)
Length of Visible Light 11h 21m
Length of Day
10h 26m
Waning Crescent, 26% of the Moon is Illuminated
Feb 5
Waning Crescent
Feb 10
New
Feb 17
First Quarter
Feb 25
Full
Mar 4
Last Quarter

Hourly Weather History & Observations

Time (CST) Temp. Windchill Dew Point Humidity Pressure Visibility Wind Dir Wind Speed Gust Speed Precip Events Conditions
12:53 AM 23.0 °F 15.8 °F 21.0 °F 92% 29.97 in 5.0 mi South 5.8 mph - N/A   Clear
1:53 AM 24.1 °F 15.2 °F 21.0 °F 88% 29.96 in 5.0 mi South 8.1 mph - N/A   Clear
2:53 AM 24.1 °F 15.2 °F 21.0 °F 88% 29.95 in 5.0 mi South 8.1 mph - N/A   Clear
3:53 AM 26.1 °F 16.2 °F 23.0 °F 88% 29.93 in 6.0 mi South 10.4 mph - N/A   Clear
4:53 AM 28.0 °F 19.3 °F 24.1 °F 85% 29.94 in 7.0 mi South 9.2 mph - N/A   Clear
5:53 AM 28.9 °F 20.4 °F 25.0 °F 85% 29.96 in 7.0 mi SSW 9.2 mph - N/A   Clear
6:53 AM 24.1 °F 15.2 °F 21.9 °F 91% 30.00 in 5.0 mi NW 8.1 mph - N/A   Clear
7:53 AM 28.0 °F 20.0 °F 23.0 °F 81% 30.01 in 5.0 mi SW 8.1 mph - N/A   Haze
8:53 AM 39.9 °F 35.1 °F 30.0 °F 68% 30.00 in 10.0 mi WSW 6.9 mph - N/A   Clear
9:53 AM 45.0 °F 37.9 °F 28.9 °F 53% 30.02 in 10.0 mi WNW 16.1 mph 21.9 mph N/A   Clear
10:53 AM 48.9 °F - 28.9 °F 46% 30.04 in 10.0 mi NW 11.5 mph - N/A   Clear
11:53 AM 55.0 °F - 28.0 °F 35% 30.04 in 10.0 mi WNW 8.1 mph - N/A   Clear
12:53 PM 59.0 °F - 27.0 °F 29% 30.03 in 10.0 mi North 9.2 mph - N/A   Clear
1:53 PM 60.1 °F - 27.0 °F 28% 30.02 in 10.0 mi Variable 4.6 mph 16.1 mph N/A   Clear
2:53 PM 62.1 °F - 26.1 °F 25% 30.01 in 10.0 mi North 6.9 mph - N/A   Clear
3:53 PM 61.0 °F - 28.0 °F 29% 30.01 in 10.0 mi NNE 12.7 mph 17.3 mph N/A   Clear
4:53 PM 59.0 °F - 28.0 °F 31% 30.02 in 10.0 mi NNE 6.9 mph - N/A   Clear
5:53 PM 52.0 °F - 28.0 °F 40% 30.03 in 10.0 mi NE 5.8 mph - N/A   Clear
6:53 PM 51.1 °F - 28.0 °F 41% 30.06 in 10.0 mi NE 5.8 mph - N/A   Clear
7:53 PM 46.9 °F - 28.0 °F 48% 30.07 in 10.0 mi ENE 4.6 mph - N/A   Clear
8:53 PM 42.1 °F 37.7 °F 27.0 °F 55% 30.09 in 10.0 mi NE 6.9 mph - N/A   Clear
9:53 PM 41.0 °F 39.0 °F 27.0 °F 57% 30.10 in 10.0 mi ESE 3.5 mph - N/A   Clear
10:53 PM 37.9 °F 32.7 °F 26.1 °F 62% 30.10 in 10.0 mi ESE 6.9 mph - N/A   Clear
11:53 PM 36.0 °F 31.1 °F 26.1 °F 67% 30.09 in 10.0 mi East 5.8 mph - N/A   Clear